Waarnemingen

Advertentie
Mijn weer
Umeå Flygplats, Zweden (2286): temperatuur & dauwpunt: 16.01.2018 21:00:00 - 22.01.2018 21:00:00 (CET)Umeå Flygplats, Zweden (2286): windsnelheid: 16.01.2018 21:00:00 - 22.01.2018 21:00:00 (CET)Umeå Flygplats, Zweden (2286): windrichting: 16.01.2018 21:00:00 - 22.01.2018 21:00:00 (CET)Umeå Flygplats, Zweden (2286): luchtdruk: 16.01.2018 21:00:00 - 22.01.2018 21:00:00 (CET)Umeå Flygplats, Zweden (2286): zicht: 16.01.2018 21:00:00 - 22.01.2018 21:00:00 (CET)
Datum & Tijd tt [°C] td [°C] ff [km/u] ff [kn] dd ppp [hPa] vv [km]
22.01.2018 21:00:00 - - - - - - -
22.01.2018 20:00:00 -18,7 -20,9 8 4 NW 1017,5 10
22.01.2018 19:00:00 -17,9 -19,9 11 6 NW 1017,1 50
22.01.2018 18:00:00 -17,1 -19,4 13 7 NNW 1016,8 10
22.01.2018 17:00:00 -15,0 -17,2 13 7 NNW 1016,4 10
22.01.2018 16:00:00 -13,9 -16,4 18 10 N 1016,1 50
22.01.2018 15:00:00 -13,4 -16,0 15 8 NNW 1015,9 10
22.01.2018 14:00:00 -12,7 -15,3 16 9 NNW 1015,6 10
22.01.2018 13:00:00 - - - - - - -
22.01.2018 12:00:00 - - - - - - -
22.01.2018 11:00:00 - - - - - - -
22.01.2018 10:00:00 -11,4 -13,4 14 8 N 1014,7 7
22.01.2018 09:00:00 -11,0 -12,7 13 7 N 1014,2 6
22.01.2018 08:00:00 -10,5 -12,2 13 7 N 1013,9 9
22.01.2018 07:00:00 -10,2 -11,9 14 8 N 1013,6 9
22.01.2018 06:00:00 -9,7 -11,5 16 9 N 1013,6 10
22.01.2018 05:00:00 -9,0 -10,6 16 9 N 1013,6 10
22.01.2018 04:00:00 -8,5 -10,0 14 8 N 1013,5 45
22.01.2018 03:00:00 -8,6 -9,9 13 7 NNW 1013,2 10
22.01.2018 02:00:00 -8,6 -9,9 13 7 N 1013,3 10
22.01.2018 01:00:00 -8,6 -9,9 14 8 NNW 1013,3 11
22.01.2018 00:00:00 -8,2 -9,4 11 6 NNW 1013,4 5
21.01.2018 23:00:00 -8,2 -9,4 13 7 N 1013,4 6
21.01.2018 22:00:00 -8,2 -9,4 14 8 N 1013,5 4,3
21.01.2018 21:00:00 -8,0 -9,2 13 7 N 1013,4 7
21.01.2018 20:00:00 -7,8 -8,9 11 6 N 1013,6 7
21.01.2018 19:00:00 -7,5 -8,6 11 6 N 1013,6 8
21.01.2018 18:00:00 -7,4 -8,3 5 3 N 1013,7 9
21.01.2018 17:00:00 -7,6 -8,5 8 4 NNO 1013,8 10
21.01.2018 16:00:00 -7,4 -8,1 7 4 N 1013,8 21
21.01.2018 15:00:00 -6,4 -6,9 8 4 N 1013,6 10
21.01.2018 14:00:00 -6,3 -6,7 4 2 O 1013,7 10
21.01.2018 13:00:00 -6,3 -6,8 0 0 N 1013,8 6
21.01.2018 12:00:00 -6,6 -7,0 5 3 ONO 1013,8 3,0
21.01.2018 11:00:00 -6,4 -6,8 5 3 - 1013,3 0,6
21.01.2018 10:00:00 -5,8 -6,2 4 2 NNO 1013,1 1,4
21.01.2018 09:00:00 -5,6 -6,1 0 0 N 1013,0 10
21.01.2018 08:00:00 -5,2 -5,7 5 3 - 1012,6 10
21.01.2018 07:00:00 -5,1 -5,5 4 2 NNW 1012,8 17
21.01.2018 06:00:00 -4,7 -5,1 4 2 NNO 1012,5 10
21.01.2018 05:00:00 -4,4 -4,7 4 2 N 1012,3 9
21.01.2018 04:00:00 -4,8 -5,2 4 2 NO 1011,8 10
21.01.2018 03:00:00 -6,2 -6,5 0 0 N 1012,0 0,5
21.01.2018 02:00:00 -6,2 -6,6 0 0 N 1011,7 10
21.01.2018 01:00:00 -3,6 -4,0 0 0 N 1011,7 3,5
21.01.2018 00:00:00 -3,4 -3,8 0 0 N 1011,7 4,0
20.01.2018 23:00:00 -3,4 -3,8 5 3 NO 1011,7 7
20.01.2018 22:00:00 -3,3 -3,7 4 2 NO 1011,5 9
20.01.2018 21:00:00 -3,2 -3,6 0 0 N 1011,3 10
20.01.2018 20:00:00 -3,2 -3,6 5 3 O 1011,1 10
20.01.2018 19:00:00 -3,0 -3,4 7 4 O 1010,8 14
20.01.2018 18:00:00 -2,5 -2,9 9 5 O 1010,6 10
20.01.2018 17:00:00 -2,5 -2,9 7 4 O 1010,6 14
20.01.2018 16:00:00 -2,3 -2,6 7 4 O 1010,5 13
20.01.2018 15:00:00 -2,4 -2,7 4 2 - 1010,3 10
20.01.2018 14:00:00 -2,2 -2,8 8 4 O 1010,0 10
20.01.2018 13:00:00 -2,5 -2,9 7 4 O 1010,0 12
20.01.2018 12:00:00 -2,6 -3,0 8 4 O 1010,2 6
20.01.2018 11:00:00 -2,7 -3,2 4 2 ONO 1010,3 10
20.01.2018 10:00:00 -3,9 -4,4 7 4 NNW 1010,3 14
20.01.2018 09:00:00 -5,2 -5,7 5 3 NNW 1010,0 8
20.01.2018 08:00:00 -5,4 -5,9 5 3 N 1009,6 6
20.01.2018 07:00:00 -6,1 -6,6 4 2 NO 1009,6 4,7
20.01.2018 06:00:00 -6,6 -7,3 5 3 - 1009,6 1,4
20.01.2018 05:00:00 -7,5 -8,3 5 3 N 1009,6 8
20.01.2018 04:00:00 -7,9 -8,8 4 2 NNO 1009,9 4,6
20.01.2018 03:00:00 -8,4 -9,3 5 3 - 1009,8 7
20.01.2018 02:00:00 -8,6 -9,5 5 3 NO 1010,0 2,8
20.01.2018 01:00:00 -9,3 -10,4 4 2 NNO 1009,9 16
20.01.2018 00:00:00 -9,6 -10,7 4 2 - 1009,7 10
19.01.2018 23:00:00 -9,7 -10,8 4 2 - 1009,5 10
19.01.2018 22:00:00 -9,5 -10,6 4 2 NNO 1009,2 50
19.01.2018 21:00:00 -9,8 -10,9 4 2 NNW 1009,2 5
19.01.2018 20:00:00 -9,7 -10,8 5 3 NNW 1008,6 10
19.01.2018 19:00:00 -11,8 -12,8 7 4 WNW 1008,3 19
19.01.2018 18:00:00 -9,9 -11,0 8 4 NNW 1007,9 10
19.01.2018 17:00:00 -8,9 -10,0 5 3 NNW 1007,8 10
19.01.2018 16:00:00 -8,3 -9,4 4 2 NNW 1007,2 4,8
19.01.2018 15:00:00 -9,6 -10,5 8 4 NW 1006,7 8
19.01.2018 14:00:00 -9,9 -10,4 8 4 NNW 1006,1 8
19.01.2018 13:00:00 -9,3 -10,4 7 4 NW 1005,5 5
19.01.2018 12:00:00 -7,2 -8,1 5 3 NW 1005,1 8
19.01.2018 11:00:00 -8,0 -8,8 5 3 NW 1004,8 3,0
19.01.2018 10:00:00 -9,0 -9,8 8 4 NW 1004,4 6
19.01.2018 09:00:00 -8,5 -9,3 5 3 WNW 1003,8 8
19.01.2018 08:00:00 -9,6 -10,7 5 3 NW 1003,1 6
19.01.2018 07:00:00 -7,2 -8,0 5 3 N 1002,6 4,0
19.01.2018 06:00:00 -6,7 -7,5 5 3 N 1002,2 5
19.01.2018 05:00:00 -6,6 -7,3 5 3 WNW 1001,9 3,5
19.01.2018 04:00:00 -6,4 -7,1 5 3 N 1001,7 1,4
19.01.2018 03:00:00 -6,3 -6,8 5 3 N 1001,3 1,6
19.01.2018 02:00:00 -6,1 -6,8 5 3 N 1001,1 2,5
19.01.2018 01:00:00 -5,8 -6,5 4 2 NNO 1000,9 5
19.01.2018 00:00:00 -5,7 -6,2 5 3 NNO 1000,8 4,0
18.01.2018 23:00:00 -5,6 -6,1 5 3 NNO 1000,8 3,8
18.01.2018 22:00:00 -5,4 -5,9 5 3 NO 1000,7 4,0
18.01.2018 21:00:00 -5,3 -5,8 5 3 NO 1000,5 3,2
18.01.2018 20:00:00 -5,3 -5,8 5 3 NO 1000,3 4,0
18.01.2018 19:00:00 -5,2 -5,9 5 3 NNO 1000,3 2,1
18.01.2018 18:00:00 -5,4 -6,1 4 2 NO 1000,1 5
18.01.2018 17:00:00 -5,6 -6,3 4 2 NNO 1000,0 4,5
18.01.2018 16:00:00 -5,5 -6,2 5 3 NNO 1000,0 3,1
18.01.2018 15:00:00 -5,4 -6,2 5 3 NNO 1000,1 5
18.01.2018 14:00:00 -5,2 -5,9 5 3 NO 1000,0 5
18.01.2018 13:00:00 -5,3 -6,1 5 3 NO 1000,0 3,1
18.01.2018 12:00:00 -5,5 -6,2 5 3 NNO 1000,1 2,5
18.01.2018 11:00:00 -5,8 -6,5 5 3 - 1000,4 3,2
18.01.2018 10:00:00 -6,2 -6,9 5 3 N 1000,3 2,6
18.01.2018 09:00:00 -6,5 -7,3 5 3 N 1000,4 2,4
18.01.2018 08:00:00 -6,6 -7,4 5 3 - 1000,5 2,1
18.01.2018 07:00:00 -6,9 -7,7 8 4 NNO 1000,4 1,9
18.01.2018 06:00:00 -7,3 -8,2 9 5 N 1000,4 8
18.01.2018 05:00:00 -7,2 -8,6 8 4 N 1000,9 10
18.01.2018 04:00:00 -7,5 -9,0 5 3 NNO 1001,3 10
18.01.2018 03:00:00 -7,8 -9,3 5 3 N 1001,4 10
18.01.2018 02:00:00 -7,9 -9,5 8 4 N 1001,8 10
18.01.2018 01:00:00 -8,2 -9,8 5 3 NNO 1002,0 8
18.01.2018 00:00:00 -8,1 -10,5 8 4 ONO 1002,0 7
17.01.2018 23:00:00 -7,6 -10,1 8 4 ONO 1002,1 4,8
17.01.2018 22:00:00 -7,6 -10,3 9 5 O 1002,1 10
17.01.2018 21:00:00 -7,5 -10,2 9 5 O 1002,0 10
17.01.2018 20:00:00 -7,5 -10,4 11 6 ZO 1001,7 10
17.01.2018 19:00:00 -7,3 -9,5 18 10 OZO 1001,7 3,7
17.01.2018 18:00:00 -7,3 -9,7 15 8 O 1001,7 5
17.01.2018 17:00:00 -7,3 -9,1 15 8 O 1001,4 2,7
17.01.2018 16:00:00 -7,3 -8,8 15 8 O 1001,4 1,3
17.01.2018 15:00:00 -6,9 -8,4 18 10 O 1001,1 3,0
17.01.2018 14:00:00 -6,5 -9,9 16 9 OZO 1000,9 10
17.01.2018 13:00:00 -6,3 -9,7 18 10 OZO 1000,7 10
17.01.2018 12:00:00 -6,3 -9,2 21 11 OZO 1000,9 8
17.01.2018 11:00:00 -6,5 -8,8 21 11 OZO 1001,0 10
17.01.2018 10:00:00 -6,6 -8,7 18 10 OZO 1001,0 5
17.01.2018 09:00:00 -7,0 -9,2 21 11 ZO 1001,1 6
17.01.2018 08:00:00 -6,7 -9,9 22 12 ZO 1000,6 10
17.01.2018 07:00:00 -6,4 -10,1 24 13 ZO 1000,1 10
17.01.2018 06:00:00 -6,2 -10,4 22 12 ZO 999,9 10
17.01.2018 05:00:00 -6,1 -10,0 22 12 ZO 999,7 10
17.01.2018 04:00:00 -6,0 -9,5 24 13 OZO 999,6 10
17.01.2018 03:00:00 -6,1 -9,1 29 16 ZO 999,5 10
17.01.2018 02:00:00 -5,8 -8,7 29 16 ZO 999,3 10
17.01.2018 01:00:00 -5,3 -8,0 31 17 ZO 999,0 10
17.01.2018 00:00:00 -5,2 -7,9 29 16 ZO 998,9 10
16.01.2018 23:00:00 -5,3 -7,6 29 16 ZO 998,7 10
16.01.2018 22:00:00 -6,0 -7,2 29 16 ZO 998,5 1,5
16.01.2018 21:00:00 -6,4 -7,8 31 17 ZO 998,6 2,0

tt = temperatuur
td = dauwpunt
ff = windsnelheid
dd = windrichting
ppp = luchtdruk
vv = zicht

Weerstations in de omgeving